| time (UTC) | temp F | wind direction | speed knots | gust knots | rain 1hr in | rain 24hr in | rain mn in | humidity % | barometer mb |
| 20260509173804 | 83 | 322 | 7.0 | 7.8 | 0.00 | 0.00 | 0.00 | 56 | 1009.8 |
| 20260509173300 | 83 | 295 | 4.3 | 6.1 | 0.00 | 0.00 | 0.00 | 57 | 1009.8 |
| 20260509172756 | 84 | 338 | 7.8 | 8.7 | 0.00 | 0.00 | 0.00 | 56 | 1009.7 |
| 20260509172253 | 83 | 317 | 0.0 | 2.6 | 0.00 | 0.00 | 0.00 | 57 | 1009.8 |
| 20260509171748 | 82 | 338 | 5.2 | 7.0 | 0.00 | 0.00 | 0.00 | 57 | 1009.7 |
| 20260509171245 | 83 | 267 | 1.7 | 1.7 | 0.00 | 0.00 | 0.00 | 56 | 1010.1 |
| 20260509170741 | 83 | 325 | 0.0 | 1.7 | 0.00 | 0.00 | 0.00 | 56 | 1010.1 |
| 20260509170237 | 83 | 239 | 0.9 | 2.6 | 0.00 | 0.00 | 0.00 | 54 | 1010.1 |
| 20260509165736 | 82 | 242 | 2.6 | 3.5 | 0.00 | 0.00 | 0.00 | 55 | 1010.1 |
| 20260509165232 | 82 | 4 | 4.3 | 5.2 | 0.00 | 0.00 | 0.00 | 57 | 1010.1 |
| 20260509164728 | 82 | 322 | 6.1 | 7.8 | 0.00 | 0.00 | 0.00 | 57 | 1009.9 |
| 20260509164224 | 83 | 209 | 0.9 | 1.7 | 0.00 | 0.00 | 0.00 | 57 | 1010.3 |
| 20260509163721 | 82 | 323 | 0.0 | 0.0 | 0.00 | 0.00 | 0.00 | 58 | 1010.2 |
| 20260509163217 | 82 | 255 | 0.9 | 1.7 | 0.00 | 0.00 | 0.00 | 60 | 1010.2 |
| 20260509162715 | 81 | 331 | 0.9 | 2.6 | 0.00 | 0.00 | 0.00 | 60 | 1010.3 |
| 20260509162210 | 82 | 321 | 5.2 | 6.1 | 0.00 | 0.00 | 0.00 | 59 | 1009.8 |
| 20260509161706 | 81 | 248 | 0.9 | 1.7 | 0.00 | 0.00 | 0.00 | 62 | 1010.1 |
| 20260509161203 | 80 | 353 | 4.3 | 5.2 | 0.00 | 0.00 | 0.00 | 65 | 1010.1 |
| 20260509160658 | 80 | 353 | 4.3 | 6.1 | 0.00 | 0.00 | 0.00 | 65 | 1010.2 |
| 20260509160154 | 81 | 325 | 6.1 | 7.8 | 0.00 | 0.00 | 0.00 | 65 | 1009.9 |
| 20260509155650 | 80 | 355 | 2.6 | 7.0 | 0.00 | 0.00 | 0.00 | 66 | 1010.1 |
| 20260509155146 | 79 | 325 | 4.3 | 5.2 | 0.00 | 0.00 | 0.00 | 68 | 1010.1 |
| 20260509154642 | 79 | 273 | 2.6 | 3.5 | 0.00 | 0.00 | 0.00 | 68 | 1009.7 |
| 20260509154139 | 79 | 328 | 7.0 | 9.6 | 0.00 | 0.00 | 0.00 | 71 | 1009.8 |
| 20260509153636 | 79 | 354 | 5.2 | 7.0 | 0.00 | 0.00 | 0.00 | 70 | 1009.8 |
| 20260509153133 | 79 | 355 | 0.0 | 0.0 | 0.00 | 0.00 | 0.00 | 72 | 1010.2 |
| 20260509152628 | 78 | 259 | 0.9 | 0.9 | 0.00 | 0.00 | 0.00 | 72 | 1009.9 |
| 20260509152126 | 78 | 339 | 5.2 | 6.1 | 0.00 | 0.00 | 0.00 | 73 | 1009.9 |
| 20260509151622 | 77 | 259 | 0.0 | 0.0 | 0.00 | 0.00 | 0.00 | 74 | 1009.9 |
| 20260509151120 | 78 | 288 | 0.0 | 1.7 | 0.00 | 0.00 | 0.00 | 72 | 1009.8 |
| 20260509150618 | 77 | 310 | 4.3 | 5.2 | 0.00 | 0.00 | 0.00 | 74 | 1009.7 |
| 20260509150116 | 77 | 333 | 3.5 | 5.2 | 0.00 | 0.00 | 0.00 | 76 | 1010.1 |
| 20260509145611 | 76 | 327 | 4.3 | 6.1 | 0.00 | 0.00 | 0.00 | 78 | 1010.1 |
| 20260509145107 | 75 | 320 | 6.1 | 7.8 | 0.00 | 0.00 | 0.00 | 78 | 1009.9 |
| 20260509144604 | 75 | 350 | 5.2 | 7.0 | 0.00 | 0.00 | 0.00 | 79 | 1009.9 |
| 20260509144101 | 75 | 356 | 6.1 | 7.0 | 0.00 | 0.00 | 0.00 | 80 | 1009.5 |
| 20260509143558 | 75 | 348 | 6.1 | 7.0 | 0.00 | 0.00 | 0.00 | 80 | 1009.9 |
| 20260509143056 | 75 | 306 | 3.5 | 3.5 | 0.00 | 0.00 | 0.00 | 80 | 1009.9 |
| 20260509142551 | 74 | 350 | 7.0 | 7.8 | 0.00 | 0.00 | 0.00 | 81 | 1009.9 |
| 20260509142047 | 74 | 323 | 5.2 | 6.1 | 0.00 | 0.00 | 0.00 | 82 | 1009.8 |
| 20260509141543 | 74 | 348 | 5.2 | 7.0 | 0.00 | 0.00 | 0.00 | 83 | 1010.1 |
| 20260509141040 | 74 | 324 | 3.5 | 5.2 | 0.00 | 0.00 | 0.00 | 83 | 1009.8 |
| 20260509140537 | 73 | 283 | 4.3 | 6.1 | 0.00 | 0.00 | 0.00 | 83 | 1010.1 |
| 20260509140035 | 73 | 318 | 6.1 | 7.0 | 0.00 | 0.00 | 0.00 | 84 | 1009.7 |
| 20260509135532 | 73 | 339 | 4.3 | 6.1 | 0.00 | 0.00 | 0.00 | 84 | 1010.2 |
| 20260509135030 | 73 | 313 | 4.3 | 6.1 | 0.00 | 0.00 | 0.00 | 85 | 1010.2 |
| 20260509134526 | 72 | 327 | 6.1 | 7.0 | 0.00 | 0.00 | 0.00 | 85 | 1009.8 |
| 20260509134024 | 72 | 269 | 5.2 | 7.0 | 0.00 | 0.00 | 0.00 | 85 | 1009.9 |
| 20260509133520 | 72 | 301 | 1.7 | 2.6 | 0.00 | 0.00 | 0.00 | 85 | 1009.6 |
| 20260509133018 | 72 | 324 | 6.1 | 7.8 | 0.00 | 0.00 | 0.00 | 85 | 1009.7 |
| 20260509132517 | 73 | 341 | 2.6 | 3.5 | 0.00 | 0.00 | 0.00 | 87 | 1009.6 |
| 20260509132015 | 73 | 350 | 1.7 | 2.6 | 0.00 | 0.00 | 0.00 | 88 | 1009.5 |
| 20260509131510 | 73 | 313 | 3.5 | 5.2 | 0.00 | 0.00 | 0.00 | 88 | 1009.5 |
| 20260509131007 | 72 | 329 | 0.0 | 0.0 | 0.00 | 0.00 | 0.00 | 91 | 1009.4 |
| 20260509130502 | 72 | 327 | 0.0 | 0.0 | 0.00 | 0.00 | 0.00 | 92 | 1009.1 |
| 20260509130000 | 71 | 297 | 0.0 | 0.0 | 0.00 | 0.00 | 0.00 | 94 | 1009.3 |
| 20260509125456 | 71 | 284 | 0.0 | 0.0 | 0.00 | 0.00 | 0.00 | 96 | 1009.0 |
| 20260509124952 | 70 | 236 | 0.0 | 0.0 | 0.00 | 0.00 | 0.00 | 97 | 1009.3 |
| 20260509124449 | 69 | 210 | 0.0 | 0.0 | 0.00 | 0.00 | 0.00 | 97 | 1009.2 |
| 20260509123947 | 69 | 210 | 0.0 | 0.0 | 0.00 | 0.00 | 0.00 | 97 | 1009.4 |
| 20260509123444 | 69 | 210 | 0.0 | 0.0 | 0.00 | 0.00 | 0.00 | 97 | 1009.2 |
| 20260509122939 | 68 | 210 | 0.0 | 0.0 | 0.00 | 0.00 | 0.00 | 97 | 1009.0 |
| 20260509122437 | 68 | 209 | 0.0 | 0.0 | 0.00 | 0.00 | 0.00 | 97 | 1009.2 |
| 20260509121933 | 68 | 208 | 0.0 | 0.0 | 0.00 | 0.00 | 0.00 | 97 | 1009.5 |
| 20260509121430 | 68 | 209 | 0.0 | 0.0 | 0.00 | 0.00 | 0.00 | 97 | 1009.2 |
| 20260509120928 | 68 | 209 | 0.0 | 0.0 | 0.00 | 0.00 | 0.00 | 97 | 1009.5 |
| 20260509120426 | 68 | 209 | 0.0 | 0.0 | 0.00 | 0.00 | 0.00 | 97 | 1009.6 |
| 20260509115924 | 68 | 208 | 0.0 | 0.0 | 0.00 | 0.00 | 0.00 | 97 | 1009.5 |
| 20260509115421 | 69 | 235 | 0.0 | 0.0 | 0.00 | 0.00 | 0.00 | 97 | 1009.5 |
| 20260509114919 | 69 | 236 | 0.0 | 0.0 | 0.00 | 0.00 | 0.00 | 97 | 1009.7 |
| 20260509114417 | 69 | 242 | 0.0 | 0.0 | 0.00 | 0.00 | 0.00 | 97 | 1009.7 |
| 20260509113916 | 69 | 228 | 0.0 | 0.0 | 0.00 | 0.00 | 0.00 | 97 | 1009.6 |
| 20260509113413 | 69 | 242 | 0.0 | 0.0 | 0.00 | 0.00 | 0.00 | 97 | 1009.5 |
| 20260509112910 | 69 | 243 | 0.0 | 0.0 | 0.00 | 0.00 | 0.00 | 97 | 1009.4 |
| 20260509112407 | 69 | 246 | 0.0 | 0.0 | 0.00 | 0.00 | 0.00 | 97 | 1009.5 |
| 20260509111904 | 69 | 243 | 0.0 | 0.0 | 0.00 | 0.00 | 0.00 | 97 | 1009.2 |
| 20260509111400 | 69 | 242 | 0.0 | 0.0 | 0.00 | 0.00 | 0.00 | 98 | 1009.3 |
| 20260509110859 | 69 | 244 | 0.0 | 0.0 | 0.00 | 0.00 | 0.00 | 98 | 1009.0 |
| 20260509110354 | 69 | 245 | 0.0 | 0.0 | 0.00 | 0.00 | 0.00 | 98 | 1009.4 |
| 20260509105853 | 69 | 246 | 0.0 | 0.0 | 0.00 | 0.00 | 0.00 | 98 | 1009.0 |
| 20260509105350 | 69 | 313 | 0.9 | 1.7 | 0.00 | 0.00 | 0.00 | 98 | 1009.1 |
| 20260509104847 | 69 | 327 | 6.1 | 11.3 | 0.00 | 0.00 | 0.00 | 98 | 1009.2 |
| 20260509104343 | 69 | 327 | 0.9 | 1.7 | 0.00 | 0.00 | 0.00 | 98 | 1009.0 |
| 20260509103841 | 69 | 336 | 6.1 | 7.8 | 0.00 | 0.00 | 0.00 | 98 | 1008.7 |
| 20260509103338 | 69 | 227 | 0.0 | 0.0 | 0.00 | 0.00 | 0.00 | 98 | 1007.7 |
| 20260509102837 | 69 | 210 | 5.2 | 7.0 | 0.00 | 0.00 | 0.00 | 98 | 1007.4 |
| 20260509102334 | 69 | 192 | 5.2 | 7.8 | 0.00 | 0.00 | 0.00 | 98 | 1007.0 |
| 20260509101830 | 69 | 212 | 4.3 | 6.1 | 0.00 | 0.00 | 0.00 | 98 | 1007.1 |
| 20260509101326 | 69 | 256 | 8.7 | 12.2 | 0.00 | 0.00 | 0.00 | 98 | 1007.0 |
| 20260509100824 | 69 | 200 | 6.1 | 7.0 | 0.00 | 0.00 | 0.00 | 98 | 1007.0 |
| 20260509100321 | 69 | 193 | 2.6 | 3.5 | 0.00 | 0.00 | 0.00 | 98 | 1006.6 |
| 20260509095818 | 69 | 194 | 3.5 | 7.0 | 0.00 | 0.00 | 0.00 | 98 | 1006.7 |
| 20260509095315 | 69 | 190 | 5.2 | 7.0 | 0.00 | 0.00 | 0.00 | 98 | 1006.4 |
| 20260509094812 | 69 | 196 | 5.2 | 7.0 | 0.00 | 0.00 | 0.00 | 97 | 1006.6 |
| 20260509094309 | 69 | 206 | 5.2 | 7.0 | 0.00 | 0.00 | 0.00 | 97 | 1006.7 |
| 20260509093806 | 69 | 201 | 5.2 | 6.1 | 0.00 | 0.00 | 0.00 | 97 | 1007.0 |
| 20260509093303 | 69 | 181 | 7.0 | 8.7 | 0.00 | 0.00 | 0.00 | 97 | 1006.7 |
| 20260509092802 | 68 | 181 | 5.2 | 7.0 | 0.00 | 0.00 | 0.00 | 98 | 1006.7 |
| 20260509092300 | 68 | 221 | 9.6 | 12.2 | 0.00 | 0.00 | 0.00 | 97 | 1006.7 |
| 20260509091757 | 68 | 188 | 8.7 | 11.3 | 0.00 | 0.00 | 0.00 | 97 | 1006.9 |
| 20260509091254 | 68 | 201 | 7.0 | 8.7 | 0.00 | 0.00 | 0.00 | 97 | 1007.1 |
| 20260509090751 | 68 | 170 | 4.3 | 6.1 | 0.00 | 0.00 | 0.00 | 97 | 1007.2 |
| 20260509090248 | 68 | 198 | 2.6 | 7.8 | 0.00 | 0.00 | 0.00 | 97 | 1007.4 |
| 20260509085746 | 68 | 191 | 4.3 | 6.1 | 0.00 | 0.00 | 0.00 | 97 | 1007.6 |
| 20260509085243 | 68 | 197 | 1.7 | 2.6 | 0.00 | 0.00 | 0.00 | 97 | 1007.7 |
| 20260509084739 | 68 | 190 | 0.0 | 0.0 | 0.00 | 0.00 | 0.00 | 97 | 1007.8 |
| 20260509084236 | 68 | 194 | 1.7 | 2.6 | 0.00 | 0.00 | 0.00 | 97 | 1007.9 |
| 20260509083734 | 68 | 204 | 0.0 | 0.9 | 0.00 | 0.00 | 0.00 | 97 | 1007.8 |
| 20260509083231 | 68 | 177 | 0.0 | 0.0 | 0.00 | 0.00 | 0.00 | 97 | 1008.6 |
| 20260509082727 | 68 | 199 | 0.0 | 0.9 | 0.00 | 0.00 | 0.00 | 97 | 1008.7 |
| 20260509082224 | 68 | 192 | 0.0 | 0.0 | 0.00 | 0.00 | 0.00 | 96 | 1008.9 |
| 20260509081720 | 69 | 199 | 0.0 | 0.0 | 0.00 | 0.00 | 0.00 | 96 | 1009.0 |
| 20260509081218 | 69 | 212 | 0.0 | 0.9 | 0.00 | 0.00 | 0.00 | 96 | 1009.1 |
| 20260509080716 | 69 | 188 | 1.7 | 3.5 | 0.00 | 0.00 | 0.00 | 96 | 1009.4 |
| 20260509080214 | 69 | 210 | 0.0 | 0.9 | 0.00 | 0.00 | 0.00 | 97 | 1009.6 |
| 20260509075712 | 69 | 230 | 0.0 | 0.0 | 0.00 | 0.00 | 0.00 | 97 | 1010.6 |
| 20260509075209 | 69 | 232 | 0.0 | 0.0 | 0.00 | 0.00 | 0.00 | 97 | 1010.8 |
| 20260509074705 | 69 | 235 | 0.0 | 0.0 | 0.00 | 0.00 | 0.00 | 97 | 1011.0 |
| 20260509074203 | 69 | 251 | 0.0 | 0.0 | 0.00 | 0.00 | 0.00 | 97 | 1010.8 |
| 20260509073659 | 69 | 233 | 0.0 | 0.0 | 0.00 | 0.00 | 0.00 | 97 | 1010.8 |
| 20260509073156 | 69 | 237 | 0.0 | 0.0 | 0.00 | 0.00 | 0.00 | 98 | 1010.8 |
| 20260509072652 | 69 | 247 | 0.0 | 0.0 | 0.00 | 0.00 | 0.00 | 97 | 1010.9 |
| 20260509072149 | 69 | 248 | 0.0 | 0.0 | 0.00 | 0.00 | 0.00 | 97 | 1010.7 |
| 20260509071646 | 69 | 238 | 0.0 | 0.0 | 0.00 | 0.00 | 0.00 | 97 | 1010.5 |
| 20260509071143 | 69 | 238 | 0.0 | 0.0 | 0.00 | 0.00 | 0.00 | 98 | 1010.5 |
| 20260509070640 | 69 | 222 | 0.0 | 0.0 | 0.00 | 0.00 | 0.00 | 98 | 1010.4 |
| 20260509070136 | 69 | 210 | 0.0 | 0.0 | 0.00 | 0.00 | 0.00 | 98 | 1010.8 |
| 20260509065632 | 69 | 211 | 0.0 | 0.0 | 0.00 | 0.00 | 0.00 | 98 | 1010.7 |
| 20260509065128 | 69 | 301 | 0.0 | 0.0 | 0.00 | 0.00 | 0.00 | 98 | 1010.8 |
| 20260509064626 | 68 | 302 | 0.0 | 0.0 | 0.00 | 0.00 | 0.00 | 97 | 1010.9 |
| 20260509064124 | 68 | 308 | 0.0 | 0.0 | 0.00 | 0.00 | 0.00 | 97 | 1010.9 |
| 20260509063620 | 68 | 305 | 0.0 | 0.0 | 0.00 | 0.00 | 0.00 | 97 | 1010.6 |
| 20260509063117 | 68 | 323 | 0.0 | 0.0 | 0.00 | 0.00 | 0.00 | 97 | 1010.5 |
| 20260509062614 | 68 | 305 | 0.0 | 0.0 | 0.00 | 0.00 | 0.00 | 97 | 1010.5 |
| 20260509062111 | 68 | 314 | 0.0 | 0.0 | 0.00 | 0.00 | 0.00 | 97 | 1010.4 |
| 20260509061608 | 68 | 334 | 0.0 | 0.0 | 0.00 | 0.00 | 0.00 | 97 | 1010.4 |
| 20260509061105 | 68 | 0 | 0.0 | 0.0 | 0.00 | 0.00 | 0.00 | 97 | 1009.9 |
| 20260509060603 | 68 | 181 | 0.0 | 0.0 | 0.00 | 0.00 | 0.00 | 97 | 1009.9 |
| 20260509060058 | 68 | 181 | 0.0 | 0.0 | 0.00 | 0.00 | 0.00 | 97 | 1009.9 |
| 20260509055554 | 68 | 180 | 0.0 | 0.0 | 0.00 | 0.00 | 0.00 | 97 | 1009.8 |
| 20260509055050 | 68 | 182 | 0.0 | 0.0 | 0.00 | 0.00 | 0.00 | 96 | 1009.6 |
| 20260509054548 | 69 | 192 | 0.0 | 0.0 | 0.00 | 0.00 | 0.00 | 96 | 1009.4 |
| 20260509054045 | 69 | 190 | 0.0 | 0.0 | 0.00 | 0.00 | 0.00 | 96 | 1009.8 |
| 20260509053543 | 69 | 187 | 0.0 | 0.0 | 0.00 | 0.00 | 0.00 | 96 | 1009.5 |
| 20260509053040 | 69 | 187 | 0.0 | 0.0 | 0.00 | 0.00 | 0.00 | 96 | 1009.7 |
| 20260509052538 | 69 | 186 | 0.0 | 0.0 | 0.00 | 0.00 | 0.00 | 96 | 1009.9 |
| 20260509052036 | 69 | 184 | 0.0 | 0.0 | 0.00 | 0.00 | 0.00 | 96 | 1009.8 |
| 20260509051533 | 69 | 180 | 0.0 | 0.0 | 0.00 | 0.00 | 0.00 | 96 | 1009.7 |
| 20260509051030 | 69 | 186 | 0.0 | 0.0 | 0.00 | 0.00 | 0.00 | 95 | 1009.7 |
| 20260509050527 | 69 | 186 | 0.0 | 0.0 | 0.00 | 0.00 | 0.00 | 95 | 1009.7 |
| 20260509050023 | 69 | 180 | 0.0 | 0.0 | 0.00 | 0.00 | 0.00 | 95 | 1009.7 |
| 20260509045520 | 69 | 180 | 0.0 | 0.0 | 0.00 | 0.00 | 0.00 | 95 | 1010.2 |
| 20260509045012 | 69 | 180 | 0.0 | 0.0 | 0.00 | 0.00 | 0.00 | 94 | 1009.9 |
| 20260509044510 | 69 | 180 | 0.0 | 0.0 | 0.00 | 0.00 | 0.00 | 94 | 1010.2 |
| 20260509044007 | 69 | 180 | 0.0 | 0.0 | 0.00 | 0.00 | 0.00 | 94 | 1010.2 |
| 20260509043503 | 69 | 180 | 0.0 | 0.0 | 0.00 | 0.00 | 0.00 | 94 | 1009.9 |
| 20260509042958 | 70 | 180 | 0.0 | 0.0 | 0.00 | 0.00 | 0.00 | 93 | 1009.9 |
| 20260509042455 | 70 | 180 | 0.0 | 0.0 | 0.00 | 0.00 | 0.00 | 93 | 1009.9 |
| 20260509041951 | 70 | 180 | 0.0 | 0.0 | 0.00 | 0.00 | 0.00 | 93 | 1009.6 |
| 20260509041448 | 70 | 180 | 0.0 | 0.0 | 0.00 | 0.00 | 0.00 | 92 | 1009.6 |
| 20260509040946 | 71 | 180 | 0.0 | 0.0 | 0.00 | 0.00 | 0.00 | 92 | 1009.4 |
| 20260509040444 | 71 | 180 | 0.0 | 0.0 | 0.00 | 0.00 | 0.00 | 92 | 1009.6 |
| 20260509035940 | 71 | 180 | 0.0 | 0.0 | 0.00 | 0.00 | 0.00 | 92 | 1009.5 |
| 20260509035437 | 71 | 180 | 0.0 | 0.0 | 0.00 | 0.00 | 0.00 | 91 | 1009.7 |
| 20260509034933 | 71 | 180 | 0.0 | 0.0 | 0.00 | 0.00 | 0.00 | 91 | 1009.7 |
| 20260509034432 | 71 | 180 | 0.0 | 0.0 | 0.00 | 0.00 | 0.00 | 91 | 1009.6 |
| 20260509033928 | 71 | 180 | 0.0 | 0.0 | 0.00 | 0.00 | 0.00 | 91 | 1009.6 |
| 20260509033426 | 71 | 181 | 0.0 | 0.0 | 0.00 | 0.00 | 0.00 | 91 | 1009.6 |
| 20260509032922 | 71 | 185 | 0.0 | 0.0 | 0.00 | 0.00 | 0.00 | 91 | 1009.4 |
| 20260509032420 | 71 | 191 | 0.0 | 0.0 | 0.00 | 0.00 | 0.00 | 90 | 1009.3 |
| 20260509031917 | 71 | 185 | 0.0 | 0.0 | 0.00 | 0.00 | 0.00 | 90 | 1009.3 |
| 20260509031415 | 71 | 168 | 0.0 | 0.0 | 0.00 | 0.00 | 0.00 | 90 | 1009.1 |
| 20260509030912 | 71 | 151 | 0.0 | 0.9 | 0.00 | 0.00 | 0.00 | 90 | 1008.8 |
| 20260509030410 | 71 | 191 | 0.0 | 0.0 | 0.00 | 0.00 | 0.00 | 90 | 1008.9 |
| 20260509025907 | 71 | 185 | 0.0 | 0.0 | 0.00 | 0.00 | 0.00 | 90 | 1009.1 |
| 20260509025402 | 71 | 180 | 0.0 | 0.0 | 0.00 | 0.00 | 0.00 | 89 | 1009.0 |
| 20260509024857 | 71 | 181 | 0.0 | 0.0 | 0.00 | 0.00 | 0.00 | 89 | 1009.1 |
| 20260509024354 | 71 | 181 | 0.0 | 0.0 | 0.00 | 0.00 | 0.00 | 89 | 1008.8 |
| 20260509023851 | 72 | 181 | 0.0 | 0.0 | 0.00 | 0.00 | 0.00 | 89 | 1009.0 |
| 20260509023348 | 72 | 181 | 0.0 | 0.0 | 0.00 | 0.00 | 0.00 | 89 | 1009.0 |
| 20260509022844 | 72 | 181 | 0.0 | 0.0 | 0.00 | 0.00 | 0.00 | 89 | 1008.8 |
| 20260509022342 | 72 | 181 | 0.0 | 0.0 | 0.00 | 0.00 | 0.00 | 88 | 1008.7 |
| 20260509021839 | 72 | 188 | 0.0 | 0.0 | 0.00 | 0.00 | 0.00 | 88 | 1008.7 |
| 20260509021336 | 72 | 184 | 0.0 | 0.0 | 0.00 | 0.00 | 0.00 | 88 | 1008.5 |
| 20260509020834 | 72 | 184 | 0.0 | 0.0 | 0.00 | 0.00 | 0.00 | 88 | 1008.4 |
| 20260509020332 | 72 | 184 | 0.0 | 0.0 | 0.00 | 0.00 | 0.00 | 88 | 1008.7 |
| 20260509015829 | 72 | 165 | 0.0 | 0.0 | 0.00 | 0.00 | 0.00 | 88 | 1008.3 |
| 20260509015327 | 72 | 171 | 0.0 | 0.0 | 0.00 | 0.00 | 0.00 | 88 | 1008.4 |
| 20260509014823 | 72 | 181 | 0.0 | 0.0 | 0.00 | 0.00 | 0.00 | 88 | 1008.1 |
| 20260509014320 | 72 | 181 | 0.0 | 0.0 | 0.00 | 0.00 | 0.00 | 87 | 1008.3 |
| 20260509013817 | 72 | 191 | 0.0 | 0.0 | 0.00 | 0.00 | 0.00 | 87 | 1008.3 |
| 20260509013313 | 72 | 191 | 0.0 | 0.0 | 0.00 | 0.00 | 0.00 | 87 | 1008.3 |
| 20260509012809 | 72 | 191 | 0.0 | 0.0 | 0.00 | 0.00 | 0.00 | 87 | 1008.4 |
| 20260509012307 | 72 | 192 | 0.0 | 0.0 | 0.00 | 0.00 | 0.00 | 87 | 1008.1 |
| 20260509011803 | 72 | 192 | 0.0 | 0.0 | 0.00 | 0.00 | 0.00 | 86 | 1008.2 |
| 20260509011301 | 73 | 193 | 0.0 | 0.0 | 0.00 | 0.00 | 0.00 | 86 | 1008.4 |
| 20260509010758 | 73 | 191 | 0.0 | 0.0 | 0.00 | 0.00 | 0.00 | 86 | 1008.4 |
| 20260509010255 | 73 | 191 | 0.0 | 0.0 | 0.00 | 0.00 | 0.00 | 86 | 1008.0 |
| 20260509005753 | 73 | 181 | 0.0 | 0.0 | 0.00 | 0.00 | 0.00 | 86 | 1007.8 |
| 20260509005251 | 73 | 184 | 0.0 | 0.0 | 0.00 | 0.00 | 0.00 | 86 | 1007.6 |
| 20260509004749 | 73 | 197 | 0.0 | 0.0 | 0.00 | 0.00 | 0.00 | 86 | 1007.9 |
| 20260509004247 | 73 | 206 | 0.0 | 0.0 | 0.00 | 0.00 | 0.00 | 85 | 1007.9 |
| 20260509003745 | 73 | 185 | 0.0 | 0.0 | 0.00 | 0.00 | 0.00 | 85 | 1007.9 |
| 20260509003242 | 73 | 184 | 0.0 | 0.0 | 0.00 | 0.00 | 0.00 | 85 | 1008.0 |
| 20260509002739 | 73 | 184 | 0.0 | 0.0 | 0.00 | 0.00 | 0.00 | 84 | 1008.0 |
| 20260509002237 | 74 | 192 | 0.0 | 0.0 | 0.00 | 0.00 | 0.00 | 84 | 1007.9 |
| 20260509001735 | 74 | 190 | 0.0 | 0.0 | 0.00 | 0.00 | 0.00 | 83 | 1007.5 |
| 20260509001230 | 74 | 162 | 0.0 | 0.0 | 0.00 | 0.00 | 0.00 | 83 | 1007.8 |
| 20260509000728 | 74 | 188 | 0.0 | 0.0 | 0.00 | 0.00 | 0.00 | 83 | 1007.6 |
| 20260509000226 | 74 | 195 | 0.0 | 0.0 | 0.00 | 0.00 | 0.00 | 83 | 1007.8 |
| 20260508235722 | 74 | 183 | 0.0 | 0.0 | 0.00 | 0.00 | 0.00 | 83 | 1007.9 |
| 20260508235218 | 74 | 163 | 0.9 | 2.6 | 0.00 | 0.00 | 0.00 | 83 | 1007.7 |
| 20260508234716 | 74 | 197 | 0.0 | 0.0 | 0.00 | 0.00 | 0.00 | 83 | 1007.8 |
| 20260508234212 | 75 | 156 | 0.0 | 0.9 | 0.00 | 0.00 | 0.00 | 83 | 1008.0 |
| 20260508233706 | 74 | 191 | 0.0 | 0.0 | 0.00 | 0.00 | 0.00 | 82 | 1007.8 |
| 20260508233204 | 74 | 185 | 0.0 | 0.0 | 0.00 | 0.00 | 0.00 | 82 | 1007.9 |
| 20260508232701 | 75 | 185 | 0.0 | 0.0 | 0.00 | 0.00 | 0.00 | 82 | 1007.6 |
| 20260508232157 | 75 | 179 | 0.0 | 0.0 | 0.00 | 0.00 | 0.00 | 83 | 1007.8 |
| 20260508231655 | 74 | 177 | 0.0 | 0.0 | 0.00 | 0.00 | 0.00 | 82 | 1007.8 |
| 20260508231152 | 74 | 201 | 1.7 | 2.6 | 0.00 | 0.00 | 0.00 | 82 | 1008.0 |
| 20260508230649 | 74 | 189 | 0.9 | 1.7 | 0.00 | 0.00 | 0.00 | 82 | 1008.0 |
| 20260508230145 | 75 | 187 | 4.3 | 5.2 | 0.00 | 0.00 | 0.00 | 81 | 1007.7 |
| 20260508225643 | 75 | 168 | 0.9 | 0.9 | 0.00 | 0.00 | 0.00 | 82 | 1008.0 |
| 20260508225139 | 74 | 143 | 0.0 | 0.9 | 0.00 | 0.00 | 0.00 | 82 | 1007.9 |
| 20260508224637 | 74 | 169 | 0.0 | 0.9 | 0.00 | 0.00 | 0.00 | 83 | 1007.8 |
| 20260508224134 | 74 | 158 | 3.5 | 3.5 | 0.00 | 0.00 | 0.00 | 82 | 1007.9 |
| 20260508223632 | 74 | 196 | 5.2 | 6.1 | 0.00 | 0.00 | 0.00 | 81 | 1008.0 |
| 20260508223129 | 74 | 193 | 0.0 | 0.0 | 0.00 | 0.00 | 0.00 | 82 | 1008.1 |
| 20260508222626 | 74 | 187 | 0.0 | 0.0 | 0.00 | 0.00 | 0.00 | 81 | 1008.0 |
| 20260508222123 | 75 | 175 | 1.7 | 1.7 | 0.00 | 0.00 | 0.00 | 80 | 1008.2 |
| 20260508221619 | 75 | 110 | 1.7 | 1.7 | 0.00 | 0.00 | 0.00 | 80 | 1007.9 |
| 20260508221115 | 74 | 206 | 0.0 | 0.0 | 0.00 | 0.00 | 0.00 | 81 | 1008.2 |
| 20260508220612 | 74 | 189 | 0.0 | 0.0 | 0.00 | 0.00 | 0.00 | 81 | 1008.2 |
| 20260508220109 | 74 | 165 | 1.7 | 3.5 | 0.00 | 0.00 | 0.00 | 80 | 1008.5 |
| 20260508215605 | 75 | 180 | 0.0 | 0.0 | 0.00 | 0.00 | 0.00 | 79 | 1008.5 |
| 20260508215102 | 74 | 182 | 0.0 | 0.0 | 0.00 | 0.00 | 0.00 | 79 | 1008.7 |
| 20260508214559 | 74 | 155 | 0.0 | 0.9 | 0.00 | 0.00 | 0.00 | 80 | 1008.8 |
| 20260508214056 | 73 | 184 | 0.0 | 0.0 | 0.00 | 0.00 | 0.00 | 81 | 1008.3 |
| 20260508213553 | 73 | 178 | 0.0 | 0.0 | 0.00 | 0.00 | 0.00 | 81 | 1008.1 |
| 20260508213049 | 72 | 195 | 1.7 | 7.8 | 0.00 | 0.00 | 0.00 | 82 | 1008.0 |
| 20260508212545 | 72 | 146 | 3.5 | 7.0 | 0.00 | 0.00 | 0.00 | 82 | 1008.1 |
| 20260508212042 | 72 | 195 | 1.7 | 5.2 | 0.00 | 0.00 | 0.00 | 82 | 1008.1 |
| 20260508211537 | 71 | 126 | 5.2 | 8.7 | 0.00 | 0.00 | 0.00 | 81 | 1008.5 |
| 20260508211034 | 71 | 186 | 1.7 | 3.5 | 0.00 | 0.00 | 0.00 | 83 | 1008.7 |
| 20260508210530 | 70 | 171 | 2.6 | 3.5 | 0.00 | 0.00 | 0.00 | 83 | 1008.5 |
| 20260508210028 | 70 | 172 | 0.9 | 2.6 | 0.00 | 0.00 | 0.00 | 83 | 1008.7 |
| 20260508205525 | 69 | 171 | 4.3 | 6.1 | 0.00 | 0.00 | 0.00 | 83 | 1008.8 |
| 20260508205021 | 69 | 192 | 2.6 | 3.5 | 0.00 | 0.00 | 0.00 | 84 | 1009.3 |
| 20260508204518 | 68 | 182 | 0.0 | 0.0 | 0.00 | 0.00 | 0.00 | 84 | 1009.6 |
| 20260508204014 | 68 | 181 | 0.0 | 0.0 | 0.00 | 0.00 | 0.00 | 85 | 1010.1 |
| 20260508203510 | 68 | 201 | 1.7 | 5.2 | 0.00 | 0.00 | 0.00 | 84 | 1010.1 |
| 20260508203006 | 68 | 179 | 1.7 | 2.6 | 0.00 | 0.00 | 0.00 | 84 | 1010.4 |
| 20260508202503 | 69 | 194 | 5.2 | 7.0 | 0.00 | 0.00 | 0.00 | 82 | 1010.4 |
| 20260508202000 | 69 | 197 | 1.7 | 2.6 | 0.00 | 0.00 | 0.00 | 82 | 1010.4 |
| 20260508201456 | 69 | 206 | 0.9 | 1.7 | 0.00 | 0.00 | 0.00 | 82 | 1010.3 |
| 20260508200953 | 69 | 204 | 0.0 | 0.0 | 0.00 | 0.00 | 0.00 | 81 | 1010.9 |
| 20260508200451 | 69 | 205 | 1.7 | 3.5 | 0.00 | 0.00 | 0.00 | 81 | 1010.9 |
| 20260508195945 | 69 | 195 | 0.0 | 0.9 | 0.00 | 0.00 | 0.00 | 80 | 1010.8 |
| 20260508195443 | 70 | 136 | 5.2 | 7.0 | 0.00 | 0.00 | 0.00 | 79 | 1010.8 |
| 20260508194939 | 71 | 193 | 1.7 | 2.6 | 0.00 | 0.00 | 0.00 | 77 | 1010.6 |
| 20260508194436 | 71 | 143 | 0.9 | 1.7 | 0.00 | 0.00 | 0.00 | 78 | 1010.2 |
| 20260508193933 | 70 | 199 | 0.0 | 0.0 | 0.00 | 0.00 | 0.00 | 79 | 1010.4 |
| 20260508193430 | 70 | 192 | 3.5 | 3.5 | 0.00 | 0.00 | 0.00 | 78 | 1010.5 |
| 20260508192926 | 69 | 194 | 0.0 | 0.0 | 0.00 | 0.00 | 0.00 | 79 | 1010.6 |
| 20260508192423 | 69 | 194 | 0.0 | 0.0 | 0.00 | 0.00 | 0.00 | 78 | 1010.6 |
| 20260508191920 | 70 | 201 | 0.0 | 0.0 | 0.00 | 0.00 | 0.00 | 78 | 1010.7 |
| 20260508191418 | 69 | 147 | 0.0 | 0.0 | 0.00 | 0.00 | 0.00 | 78 | 1010.6 |
| 20260508190914 | 69 | 158 | 0.0 | 0.0 | 0.00 | 0.00 | 0.00 | 78 | 1010.8 |
| 20260508190411 | 69 | 189 | 0.0 | 0.0 | 0.00 | 0.00 | 0.00 | 78 | 1011.0 |
| 20260508185907 | 69 | 186 | 5.2 | 6.1 | 0.00 | 0.00 | 0.00 | 77 | 1011.1 |
| 20260508185405 | 69 | 199 | 0.0 | 0.0 | 0.00 | 0.00 | 0.00 | 78 | 1010.7 |
| 20260508184902 | 69 | 198 | 3.5 | 6.1 | 0.00 | 0.00 | 0.00 | 77 | 1010.9 |
| 20260508184359 | 69 | 181 | 1.7 | 2.6 | 0.00 | 0.00 | 0.00 | 76 | 1011.2 |
| 20260508183856 | 70 | 195 | 0.0 | 0.0 | 0.00 | 0.00 | 0.00 | 77 | 1011.5 |
| 20260508183352 | 69 | 159 | 0.0 | 0.0 | 0.00 | 0.00 | 0.00 | 77 | 1011.3 |
| 20260508182848 | 69 | 169 | 2.6 | 3.5 | 0.00 | 0.00 | 0.00 | 77 | 1011.3 |
| 20260508182345 | 69 | 196 | 0.0 | 0.0 | 0.00 | 0.00 | 0.00 | 77 | 1011.9 |
| 20260508181840 | 69 | 189 | 0.0 | 0.0 | 0.00 | 0.00 | 0.00 | 76 | 1011.7 |
| 20260508181337 | 69 | 178 | 0.0 | 0.0 | 0.00 | 0.00 | 0.00 | 76 | 1011.8 |
| 20260508180834 | 70 | 188 | 0.9 | 2.6 | 0.00 | 0.00 | 0.00 | 75 | 1011.6 |
| 20260508180331 | 70 | 185 | 0.0 | 0.0 | 0.00 | 0.00 | 0.00 | 74 | 1011.8 |
| 20260508175827 | 70 | 163 | 0.0 | 0.0 | 0.00 | 0.00 | 0.00 | 76 | 1011.7 |
| 20260508175324 | 70 | 187 | 0.0 | 0.0 | 0.00 | 0.00 | 0.00 | 75 | 1011.6 |
| 20260508174823 | 70 | 141 | 2.6 | 5.2 | 0.00 | 0.00 | 0.00 | 74 | 1011.6 |
| 20260508174319 | 70 | 137 | 0.9 | 2.6 | 0.00 | 0.00 | 0.00 | 74 | 1011.9 |